Weather History for KC09 - March, 2013

Change the Weather History Date:

Friday, March 1, 2013

  Actual Average (KLOT) Record (KLOT)
Temperature  
Mean Temperature 29 °F 33 °F  
Max Temperature 32 °F 41 °F 71 °F (1992)
Min Temperature 26 °F 24 °F 10 °F (2014)
Degree Days  
Heating Degree Days 36 32  
Month to date heating degree days 32  
Since 1 July heating degree days 4760  
Cooling Degree Days 0 0  
Month to date cooling degree days 0  
Year to date cooling degree days 0  
Moisture  
Dew Point 23 °F    
Average Humidity 81    
Maximum Humidity 86    
Minimum Humidity 74    
Precipitation  
Precipitation 0.00 in 0.09 in 0.72 in (2007)
Month to date precipitation 0.09  
Year to date precipitation 3.80  
Snow  
Snow 0.00 in 0.20 in 2.30 in (2002)
Month to date snowfall 0.2  
Since 1 July snowfall 27.6  
Snow Depth -    
Sea Level Pressure  
Sea Level Pressure 30.11 in    
Wind  
Wind Speed 8 mph (North)    
Max Wind Speed 13 mph    
Max Gust Speed 20 mph    
Visibility 9 miles    
Events Snow    
T = Trace of Precipitation, MM = Missing Value Source: NWS Daily Summary

Daily Weather History Graph

Daily Weather History Graph

Search for Another Location

Airport or City:

Trip Planner

Search our weather history database for the weather conditions in past years. The results will help you decide how hot, cold, wet, or windy it might be!

Date:

Astronomy

Mar. 01, 2013 Rise Set
Actual Time 6:27 AM CST 5:44 PM CST
Civil Twilight 6:00 AM CST 6:12 PM CST
Nautical Twilight 5:28 AM CST 6:44 PM CST
Astronomical Twilight 4:56 AM CST 7:16 PM CST
Moon 10:21 PM CST (3/1) 8:10 AM CST (3/1)
Length of Visible Light 12h 12m
Length of Day
11h 16m
Waning Gibbous, 83% of the Moon is Illuminated
Mar 1
Waning Gibbous
Mar 4
Last Quarter
Mar 11
New
Mar 19
First Quarter
Mar 27
Full

Hourly Weather History & Observations

Time (CST) Temp. Windchill Dew Point Humidity Pressure Visibility Wind Dir Wind Speed Gust Speed Precip Events Conditions
12:15 AM 30.2 °F 24.3 °F 22.8 °F 74% 30.06 in 10.0 mi North 5.8 mph - N/A   Overcast
12:35 AM 30.0 °F 24.1 °F 23.0 °F 75% 30.06 in 10.0 mi North 5.8 mph - N/A   Overcast
12:55 AM 29.8 °F 23.9 °F 23.4 °F 77% 30.06 in 10.0 mi North 5.8 mph - N/A   Overcast
1:15 AM 29.7 °F 22.8 °F 22.8 °F 76% 30.06 in 10.0 mi North 6.9 mph - N/A   Overcast
1:35 AM 29.3 °F 21.5 °F 22.6 °F 76% 30.06 in 10.0 mi North 8.1 mph - N/A   Overcast
1:55 AM 29.3 °F 23.2 °F 22.6 °F 76% 30.06 in 10.0 mi North 5.8 mph - N/A   Overcast
2:15 AM 28.8 °F 20.9 °F 21.9 °F 76% 30.06 in 10.0 mi North 8.1 mph - N/A   Overcast
2:35 AM 28.6 °F 21.5 °F 22.3 °F 77% 30.05 in 10.0 mi North 6.9 mph - N/A   Overcast
2:55 AM 28.4 °F 20.4 °F 22.6 °F 79% 30.05 in 10.0 mi North 8.1 mph - N/A   Overcast
3:15 AM 28.2 °F 20.2 °F 22.8 °F 80% 30.05 in 10.0 mi North 8.1 mph - N/A   Overcast
3:35 AM 28.0 °F 20.0 °F 22.6 °F 80% 30.05 in 10.0 mi North 8.1 mph - N/A   Overcast
3:55 AM 27.5 °F 19.3 °F 22.8 °F 83% 30.05 in 10.0 mi North 8.1 mph 16.1 mph N/A   Overcast
4:15 AM 27.5 °F 19.3 °F 22.8 °F 83% 30.05 in 10.0 mi North 8.1 mph - N/A   Overcast
4:35 AM 27.5 °F 19.3 °F 23.4 °F 84% 30.06 in 10.0 mi North 8.1 mph - N/A Snow Light Snow
4:55 AM 28.4 °F 20.4 °F 23.0 °F 80% 30.06 in 10.0 mi North 8.1 mph - N/A   Overcast
5:15 AM 27.5 °F 20.2 °F 23.5 °F 85% 30.06 in 10.0 mi North 6.9 mph - N/A   Overcast
5:35 AM 27.5 °F 20.2 °F 23.4 °F 84% 30.06 in 10.0 mi North 6.9 mph - N/A   Overcast
5:55 AM 27.5 °F 20.2 °F 23.5 °F 85% 30.07 in 10.0 mi North 6.9 mph - N/A   Overcast
6:15 AM 27.3 °F 18.4 °F 23.4 °F 85% 30.07 in 10.0 mi North 9.2 mph 16.1 mph N/A   Overcast
6:35 AM 26.6 °F 17.5 °F 23.0 °F 86% 30.07 in 10.0 mi North 9.2 mph - N/A   Overcast
6:55 AM 26.6 °F 18.2 °F 23.0 °F 86% 30.08 in 7.0 mi North 8.1 mph - N/A   Overcast
7:15 AM 27.3 °F 18.4 °F 23.5 °F 86% 30.08 in 7.0 mi North 9.2 mph 16.1 mph N/A   Overcast
7:35 AM 27.5 °F 22.2 °F 23.7 °F 86% 30.09 in 4.0 mi North 4.6 mph - N/A Snow Light Snow
7:55 AM 27.5 °F 18.6 °F 23.4 °F 84% 30.09 in 7.0 mi North 9.2 mph - N/A   Overcast
8:15 AM 27.9 °F 19.8 °F 23.5 °F 84% 30.10 in 7.0 mi North 8.1 mph - N/A   Overcast
8:35 AM 27.9 °F 19.1 °F 23.5 °F 84% 30.10 in 7.0 mi North 9.2 mph - N/A   Overcast
8:55 AM 28.0 °F 18.6 °F 23.2 °F 82% 30.10 in 7.0 mi North 10.4 mph 18.4 mph N/A Snow Light Snow
9:15 AM 28.2 °F 20.2 °F 23.4 °F 82% 30.10 in 5.0 mi North 8.1 mph 18.4 mph N/A Snow Light Snow
9:35 AM 28.2 °F 18.3 °F 23.4 °F 82% 30.11 in 7.0 mi North 11.5 mph 19.6 mph N/A Snow Light Snow
9:55 AM 28.4 °F 19.7 °F 23.4 °F 81% 30.11 in 10.0 mi North 9.2 mph - N/A   Overcast
10:15 AM 28.8 °F 19.0 °F 23.7 °F 81% 30.11 in 10.0 mi North 11.5 mph 19.6 mph N/A   Overcast
10:35 AM 28.9 °F 19.8 °F 23.7 °F 81% 30.11 in 10.0 mi North 10.4 mph 17.3 mph N/A   Overcast
10:55 AM 29.3 °F 20.2 °F 23.7 °F 80% 30.11 in 10.0 mi North 10.4 mph 18.4 mph N/A   Overcast
11:15 AM 29.8 °F 20.9 °F 23.5 °F 77% 30.11 in 10.0 mi North 10.4 mph 17.3 mph N/A   Overcast
11:35 AM 30.4 °F 21.5 °F 23.9 °F 77% 30.12 in 10.0 mi North 10.4 mph - N/A   Overcast
11:55 AM 30.4 °F 21.5 °F 23.9 °F 77% 30.12 in 10.0 mi North 10.4 mph - N/A   Overcast
12:15 PM 30.6 °F 22.4 °F 24.1 °F 77% 30.12 in 10.0 mi North 9.2 mph - N/A   Overcast
12:35 PM 30.2 °F 21.9 °F 23.9 °F 77% 30.11 in 10.0 mi North 9.2 mph 17.3 mph N/A   Overcast
12:55 PM 30.6 °F 22.4 °F 24.4 °F 78% 30.11 in 10.0 mi North 9.2 mph - N/A   Overcast
1:15 PM 30.6 °F 22.4 °F 24.6 °F 79% 30.11 in 10.0 mi North 9.2 mph 16.1 mph N/A   Overcast
1:35 PM 30.9 °F 22.2 °F 25.2 °F 79% 30.10 in 10.0 mi North 10.4 mph - N/A   Overcast
1:55 PM 32.0 °F 23.0 °F 24.8 °F 75% 30.10 in 10.0 mi North 11.5 mph 17.3 mph N/A   Overcast
2:15 PM 30.6 °F 21.2 °F 25.0 °F 80% 30.11 in 10.0 mi North 11.5 mph - N/A   Overcast
2:35 PM 30.0 °F 20.5 °F 24.6 °F 80% 30.11 in 10.0 mi North 11.5 mph 18.4 mph N/A   Overcast
2:55 PM 29.7 °F 20.7 °F 24.8 °F 82% 30.11 in 10.0 mi North 10.4 mph 17.3 mph N/A   Overcast
3:15 PM 29.1 °F 18.9 °F 24.6 °F 83% 30.11 in 7.0 mi North 12.7 mph 19.6 mph N/A   Overcast
3:35 PM 28.8 °F 19.5 °F 24.6 °F 84% 30.13 in 10.0 mi North 10.4 mph 18.4 mph N/A   Overcast
3:55 PM 27.5 °F 17.4 °F 23.9 °F 86% 30.14 in 7.0 mi North 11.5 mph 17.3 mph N/A   Overcast
4:15 PM 27.5 °F 18.6 °F 23.7 °F 86% 30.14 in 10.0 mi NNW 9.2 mph - N/A   Overcast
4:35 PM 27.5 °F 17.4 °F 23.5 °F 85% 30.14 in 7.0 mi NNW 11.5 mph 18.4 mph N/A Snow Light Snow
4:55 PM 27.1 °F 17.5 °F 23.0 °F 84% 30.15 in 10.0 mi NNW 10.4 mph 17.3 mph N/A Snow Light Snow
5:15 PM 27.1 °F 18.2 °F 23.0 °F 84% 30.15 in 10.0 mi NNW 9.2 mph 16.1 mph N/A   Overcast
5:35 PM 27.0 °F 19.5 °F 22.8 °F 84% 30.16 in 10.0 mi NNW 6.9 mph 19.6 mph N/A   Overcast
5:55 PM 27.0 °F 18.7 °F 22.5 °F 83% 30.16 in 10.0 mi NNW 8.1 mph 17.3 mph N/A   Overcast
6:15 PM 27.0 °F 17.3 °F 22.3 °F 83% 30.17 in 10.0 mi North 10.4 mph 17.3 mph N/A   Overcast
6:35 PM 27.0 °F 17.3 °F 22.1 °F 82% 30.17 in 10.0 mi NNW 10.4 mph 17.3 mph N/A   Overcast
6:55 PM 26.8 °F 18.5 °F 21.7 °F 81% 30.18 in 10.0 mi North 8.1 mph 16.1 mph N/A   Overcast
7:15 PM 26.6 °F 17.5 °F 21.6 °F 81% 30.18 in 10.0 mi North 9.2 mph 18.4 mph N/A   Overcast
7:35 PM 26.6 °F 15.7 °F 21.4 °F 81% 30.18 in 10.0 mi North 12.7 mph 18.4 mph N/A   Overcast
7:55 PM 26.6 °F 16.8 °F 21.2 °F 80% 30.18 in 10.0 mi North 10.4 mph 16.1 mph N/A   Overcast
8:15 PM 26.6 °F 17.5 °F 21.0 °F 79% 30.18 in 10.0 mi North 9.2 mph 16.1 mph N/A   Overcast
8:35 PM 26.6 °F 16.8 °F 20.8 °F 79% 30.18 in 10.0 mi North 10.4 mph - N/A   Overcast
8:55 PM 26.6 °F 18.2 °F 21.0 °F 79% 30.18 in 10.0 mi North 8.1 mph - N/A   Overcast
9:15 PM 26.6 °F 17.5 °F 21.2 °F 80% 30.18 in 10.0 mi NNW 9.2 mph - N/A   Overcast
9:35 PM 26.6 °F 17.5 °F 21.2 °F 80% 30.18 in 10.0 mi North 9.2 mph - N/A   Overcast
9:55 PM 26.6 °F 18.2 °F 21.0 °F 79% 30.18 in 10.0 mi North 8.1 mph - N/A   Overcast
10:15 PM 26.6 °F 18.2 °F 21.0 °F 79% 30.17 in 10.0 mi NNW 8.1 mph - N/A   Overcast
10:35 PM 26.6 °F 17.5 °F 21.0 °F 79% 30.17 in 10.0 mi North 9.2 mph - N/A   Overcast
10:55 PM 26.8 °F 18.5 °F 21.0 °F 79% 30.16 in 10.0 mi NNW 8.1 mph - N/A   Overcast
11:15 PM 26.8 °F 18.5 °F 21.0 °F 79% 30.16 in 10.0 mi NNW 8.1 mph - N/A   Overcast
11:35 PM 27.0 °F 18.0 °F 20.7 °F 77% 30.16 in 10.0 mi North 9.2 mph - N/A   Overcast
11:55 PM 27.0 °F 18.0 °F 20.3 °F 76% 30.16 in 10.0 mi NNW 9.2 mph 17.3 mph N/A   Overcast